ATLAS D R/B, 2328

Orbit data source: Space-Track

ATLAS D R/B, 2328 is space debris in LEO originally from a launch on Thu, 14 Jul 1966 UTC launched from the Air Force Western Test Range (AFWTR). Debris objects in space refer to the collection of defunct objects orbiting the Earth. Examples of debris include non-operational satellites, rocket bodies, and fragments generated from explosions, collisions, or faulty payload assembly.

Loading next visibility...
Identifier
2328, 1966-063C
Orbit
LEO
Last TLE update
9 hours ago
Origin
Manufacturer
ABL
Mission
Spacecraft
Bus & Motor
ALTAIR, Unknown motor
Mass
~125 kg wet, ~125 kg dry
Launch date (UTC)
1966-07-14 (59 years ago)
Launch vehicle
Unknown
Launch site
Air Force Western Test Range (AFWTR)
Object type
Payload
Rocket body
Debris
Shape & HBR
Cyl, 3.1 m
Radar Cross Section
8.765 m², Medium (>0.1 m² and < 1m²)

Expand to show TLE details & history

TLE from 9 hours ago
0 ATLAS D R/B
1 02328U 66063C   25186.55490979  .00000269  00000-0  24637-4 0  9999
2 02328 144.2287 151.3023 0010235 313.6353 160.3519 13.69953938952697
Epoch: 2025-07-05T13:19Z
TLE epoch observation values (Epoch: 2025-07-05T13:19:04.205Z)
Latitude
32.39797°
Longitude
-91.06678°
Altitude
1,007.173 km
Speed
7.349 km/s
True Right ascension
02h 09m 58s
True Declination
32° 14' 52"
Sunlit
Object was in daylight at epoch
Visualization orbit readout
Latitude
-8.61475°
Longitude
-162.47925°
Altitude
1,004.262 km
Speed
7.349 km/s
Apparent Right ascension
21h 48m 07s
Apparent Declination
-23° 08' 12"
Sunlit
Object is in full shadow
Visualization observer readout
Local Sidereal Time
10:23:39
Azimuth
26.767° NE
Elevation
-71.615°
Doppler factor
1
Orbital elements
Apogee altitude
1,010.206 km
Perigee altitude
995.097 km
Semi-major axis
7,380.789 km
Eccentricity
0.00102
Inclination
144.2287°
RAAN
151.3023°
Arg. of periapsis
313.6353°
True anomaly
Unknown
Mean anomaly
160.3519°
Eccentric anomaly
Unknown
Mean motion
3.42286 °/min
Orbital period
105.18 mins
BSTAR
0.000024637
Loading maneuver chart data...
Loading SW <> Apogee altitude chart data...
Loading historical data...
Loading historical data...
Loading historical data...
Loading historical data...
Loading historical data...
Loading historical data...
Loading historical data...

ATLAS D R/B Visibility forecast

Observer location: undefined°, undefined°

Span
Click to sort rows by Start time (UTC) header in descending order
Start Az.
Max El. time (UTC)
Max El. Az.
Max El.
End time (UTC)
End Az.
5 mins2025-07-06 12:07:28.079Z117.829° SE2025-07-06 12:10:28.079Z148.99° SSE14.048°2025-07-06 12:12:28.079Z170.531° S
9 mins2025-07-06 13:46:28.079Z104.164° ESE2025-07-06 13:50:28.079Z164.437° S29.934°2025-07-06 13:55:28.079Z223.29° SW
10 mins2025-07-06 15:25:28.079Z98.372° ESE2025-07-06 15:29:28.079Z158.604° S39.804°2025-07-06 15:35:28.079Z250.01° W
10 mins2025-07-06 17:04:28.079Z109.104° ESE2025-07-06 17:09:28.079Z196.503° SSW40.605°2025-07-06 17:14:28.079Z263.56° W
9 mins2025-07-06 18:44:28.079Z136.699° SSE2025-07-06 18:48:28.079Z191.484° SSW32.202°2025-07-06 18:53:28.079Z262.938° W
5 mins2025-07-06 20:26:28.079Z185.493° SSW2025-07-06 20:28:28.079Z208.958° SW16.641°2025-07-06 20:31:28.079Z242.77° WSW
|